Satellite-Ground Cal/Val Region Overpasses Predictions

Prediction of Satellite NPP Overpassing Cal/Val Region: PacNW

Region Location: (Latitude: 10.00, Longitude: 139.50) to (Latitude: 22.70, Longitude: 165.60).

Table of predicted overpasses for the next 14.0 days since TLE Epoch: 6/14/2014
Interval Starting Time Starting Location Ending Time Ending Location
1 06/14/2014 14:36:23 ( 12.12, 165.60) 06/14/2014 14:36:59 ( 10.01, 165.11)
2 06/14/2014 16:14:53 ( 22.69, 142.77) 06/14/2014 16:18:29 ( 10.01, 139.73)
3 06/15/2014 03:23:58 ( 10.01, 150.25) 06/15/2014 03:27:34 ( 22.69, 147.22)
4 06/15/2014 15:55:52 ( 22.67, 147.52) 06/15/2014 15:59:27 ( 10.05, 144.50)
5 06/16/2014 03:04:58 ( 10.03, 155.01) 06/16/2014 03:08:33 ( 22.65, 151.99)
6 06/16/2014 15:36:52 ( 22.65, 152.28) 06/16/2014 15:40:27 ( 10.03, 149.26)
7 06/17/2014 02:45:57 ( 10.05, 159.76) 06/17/2014 02:49:32 ( 22.67, 156.75)
8 06/17/2014 15:17:50 ( 22.68, 157.04) 06/17/2014 15:21:26 ( 10.01, 154.01)
9 06/18/2014 02:26:56 ( 10.01, 164.53) 06/18/2014 02:30:32 ( 22.69, 161.50)
10 06/18/2014 14:58:50 ( 22.66, 161.80) 06/18/2014 15:02:25 ( 10.04, 158.78)
11 06/19/2014 03:49:25 ( 10.04, 143.91) 06/19/2014 03:53:00 ( 22.66, 140.90)
12 06/19/2014 14:40:55 ( 18.77, 165.60) 06/19/2014 14:43:24 ( 10.02, 163.54)
13 06/19/2014 16:21:18 ( 22.70, 141.19) 06/19/2014 16:23:16 ( 15.77, 139.50)
14 06/20/2014 03:30:24 ( 10.00, 148.68) 06/20/2014 03:34:00 ( 22.68, 145.65)
15 06/20/2014 16:02:18 ( 22.67, 145.95) 06/20/2014 16:05:53 ( 10.05, 142.93)
16 06/21/2014 03:11:24 ( 10.03, 153.43) 06/21/2014 03:14:59 ( 22.65, 150.42)
17 06/21/2014 15:43:17 ( 22.65, 150.70) 06/21/2014 15:46:52 ( 10.03, 147.69)
18 06/22/2014 02:52:23 ( 10.05, 158.19) 06/22/2014 02:55:58 ( 22.67, 155.17)
19 06/22/2014 15:24:16 ( 22.68, 155.47) 06/22/2014 15:27:52 ( 10.01, 152.44)
20 06/23/2014 02:33:22 ( 10.02, 162.96) 06/23/2014 02:36:58 ( 22.70, 159.93)
21 06/23/2014 15:05:15 ( 22.66, 160.22) 06/23/2014 15:08:50 ( 10.04, 157.21)
22 06/24/2014 02:16:54 ( 19.03, 165.59) 06/24/2014 02:17:56 ( 22.67, 164.69)
23
